Location: Newark
(46.9000°N, 28.3500°E)
Time: 07:20:51
(UTC+00:00)

Vanguard 1 Rocket - Pass Details

Date: 03 September 2019
Orbit: 651 x 4225 km, 34.3° (Epoch: 19 September)

Event Time Altitude Azimuth Distance (km) Brightness Sun altitude
Rises 00:48:15 0° 251° (WSW) 3,062 - -24.6°
Reaches altitude 10° 00:51:45 10° 223° (SW) 2,046 - -24.2°
Maximum altitude 00:53:54 13° 193° (SSW) 1,851 - -23.9°
Drops below altitude 10° 00:56:07 10° 164° (SSE) 2,144 - -23.7°
Exits shadow 00:57:42 - 150° (SSE) 2,572 9.6 -23.5°
Sets 00:59:59 0° 137° (SE) 3,345 10.3 -23.2°
